Flag for China Weather past 2 weeks in Changchun, Jilin, China

Now
57 °F

Sunny.


Feels Like: 56 °F
Forecast: 47 / 71 °F
Wind: 6 mph from West

Location: Changchun Airport

Current Time: Sep 16, 2014 at 9:07:23 AM

Latest Report: Sep 16, 2014 at 8:00 AM


Visibility: 10 mi

Pressure: 30.07 "Hg

Humidity: 41%

Dew point: 34 °F

Location of ChangchunLocation

Historic Weather in Changchun — Graph

°F

Changchun temperature yesterday

Maximum temperature yesterday: 68 °F (at 1:00 PM)
Minimum temperature yesterday: 46 °F (at 5:00 AM)
Average temperature yesterday: 56 °F

Past Weeks' High & Low Weather Summary

 TemperatureHumidityPressure
High84 °F (Sep 7, 2:00 PM)100% (Sep 1, 7:00 AM)30.09 "Hg (Sep 1, 7:00 AM)
Low41 °F (Sep 16, 4:00 AM)18% (Sep 15, 1:00 PM)29.62 "Hg (Sep 4, 12:00 PM)
Average62 °F66%29.89 "Hg
* Reported Sep 1 7:00 AM — Sep 16 7:00 AM, Changchun, Weather by CustomWeather, © 2014

Note: Actual official high and low records may vary slightly from our data, if they occured in-between our weather recording intervals... More about our weather records

Advertising

Changchun weather history for previous 24 hours

 ConditionsComfort  
Time TempWeatherWind HumidityBarometerVisibility
7:00 AM
Sep 16
52 °FPassing clouds.3 mph54%30.07 "HgN/A
6:00 AM43 °FSunny.6 mph76%30.04 "Hg10 mi
5:00 AM45 °FClear.3 mph66%30.04 "Hg10 mi
4:00 AM41 °FClear.3 mph76%30.01 "Hg10 mi
3:00 AM46 °FClear.6 mph62%30.04 "Hg10 mi
2:00 AM48 °FClear.6 mph58%30.04 "Hg10 mi
1:00 AM48 °FPassing clouds.6 mph58%30.01 "HgN/A
12:00 AM50 °FPassing clouds.6 mph54%30.01 "HgN/A
11:00 PM
Sep 15
50 °FPassing clouds.6 mph54%29.98 "HgN/A
10:00 PM48 °FPassing clouds.6 mph58%29.98 "HgN/A
9:00 PM48 °FPassing clouds.8 mph58%29.98 "HgN/A
8:00 PM50 °FPassing clouds.6 mph58%29.98 "HgN/A
7:00 PM54 °FPassing clouds.1 mph47%29.98 "HgN/A
6:00 PM57 °FPassing clouds.3 mph31%29.95 "HgN/A
5:00 PM63 °FScattered clouds.13 mph20%29.95 "HgN/A
4:00 PM64 °FScattered clouds.13 mph21%29.92 "HgN/A
3:00 PM66 °FScattered clouds.15 mph18%29.89 "HgN/A
2:00 PM66 °FScattered clouds.10 mph21%29.89 "HgN/A
1:00 PM68 °FPassing clouds.13 mph18%29.92 "HgN/A
12:00 PM66 °FPassing clouds.13 mph22%29.92 "HgN/A
11:00 AM64 °FPassing clouds.10 mph24%29.92 "HgN/A
10:00 AM63 °FPassing clouds.8 mph32%29.95 "HgN/A
9:00 AM61 °FPassing clouds.8 mph42%29.95 "HgN/A
Weather by CustomWeather, © 2014

See weather overviewHow to use our weather pages